Hinesville, GA

2:58 PM EST on February 14, 2016 (GMT -0500)
Wright Army Air Field

Weather History for KLHW - June, 2013

Change the Weather History Date:

Wednesday, June 5, 2013

  Actual Average Record
Temperature  
Mean Temperature 78 °F -  
Max Temperature 81 °F 88 °F 100 °F (1985)
Min Temperature 72 °F 66 °F 58 °F (1966)
Cooling Degree Days 12    
Growing Degree Days 28 (Base 50)    
Moisture  
Dew Point 74 °F    
Average Humidity 95    
Maximum Humidity 100    
Minimum Humidity 74    
Precipitation  
Precipitation 0.13 in - - ()
Sea Level Pressure  
Sea Level Pressure 29.97 in    
Wind  
Wind Speed 4 mph (SE)    
Max Wind Speed 16 mph    
Max Gust Speed 23 mph    
Visibility 10 miles    
Events Rain , Thunderstorm    
Averages and records for this station are not official NWS values.
T = Trace of Precipitation, MM = Missing Value Source: NWS Daily Summary

Daily Weather History Graph

Daily Weather History Graph

Search for Another Location

Airport or City:

Trip Planner

Search our weather history database for the weather conditions in past years. The results will help you decide how hot, cold, wet, or windy it might be!

Date:

Astronomy

Jun. 05, 2013 Rise Set
Actual Time 6:20 AM EDT 8:29 PM EDT
Civil Twilight 5:52 AM EDT 8:57 PM EDT
Nautical Twilight 5:18 AM EDT 9:31 PM EDT
Astronomical Twilight 4:41 AM EDT 10:08 PM EDT
Moon 4:15 AM EDT (6/5) 6:01 PM EDT (6/5)
Length of Visible Light 15h 05m
Length of Day
14h 09m
Waning Crescent, 8% of the Moon is Illuminated
Jun 5
Waning Crescent
Jun 8
New
Jun 16
First Quarter
Jun 23
Full
Jun 30
Last Quarter

Hourly Weather History & Observations

Time (EDT) Temp. Heat Index Dew Point Humidity Pressure Visibility Wind Dir Wind Speed Gust Speed Precip Events Conditions
12:13 AM 75.2 °F - 75.2 °F 100% 30.01 in 10.0 mi East 2.3 mph - N/A   Mostly Cloudy
12:18 AM 75.2 °F - 75.2 °F 100% 30.00 in 10.0 mi East 3.5 mph - N/A   Scattered Clouds
12:28 AM 75.2 °F - 75.2 °F 100% 30.00 in 10.0 mi East 2.3 mph - N/A   Mostly Cloudy
12:58 AM 75.0 °F - 75.0 °F 100% 30.00 in 10.0 mi SE 2.3 mph - N/A   Mostly Cloudy
1:08 AM 75.2 °F - 75.2 °F 100% 29.98 in 10.0 mi SSE 3.5 mph - N/A   Mostly Cloudy
1:58 AM 74.3 °F - 74.3 °F 100% 29.98 in 10.0 mi ENE 4.6 mph - N/A   Partly Cloudy
2:43 AM 75.2 °F - 75.2 °F 100% 29.96 in 8.0 mi NNW 1.2 mph - N/A   Partly Cloudy
2:58 AM 73.4 °F - 73.4 °F 100% 29.98 in 6.0 mi Calm Calm - N/A   Clear
3:08 AM 73.4 °F - 73.4 °F 100% 29.97 in 10.0 mi North 2.3 mph - N/A   Clear
3:53 AM 73.4 °F - 73.4 °F 100% 29.97 in 9.0 mi Calm Calm - N/A   Mostly Cloudy
3:58 AM 73.8 °F - 73.8 °F 100% 29.98 in 9.0 mi NW 2.3 mph - N/A   Mostly Cloudy
4:13 AM 73.4 °F - 73.4 °F 100% 29.98 in 9.0 mi Calm Calm - N/A   Overcast
4:23 AM 73.4 °F - 73.4 °F 100% 29.98 in 10.0 mi NNE 2.3 mph - N/A   Overcast
4:58 AM 73.8 °F - 73.8 °F 100% 29.99 in 10.0 mi SSW 3.5 mph - N/A   Mostly Cloudy
5:58 AM 73.2 °F - 73.2 °F 100% 29.99 in 10.0 mi Calm Calm - N/A   Mostly Cloudy
6:58 AM 73.0 °F - 73.0 °F 100% 29.99 in 10.0 mi West 1.2 mph - N/A   Overcast
7:58 AM 73.9 °F - 73.9 °F 100% 30.01 in 10.0 mi Calm Calm - N/A   Mostly Cloudy
8:58 AM 74.8 °F - 74.8 °F 100% 30.02 in 10.0 mi Calm Calm - N/A   Overcast
9:22 AM 75.2 °F - 75.2 °F 100% 30.01 in 10.0 mi North 1.2 mph - N/A Rain Light Rain
9:35 AM 75.2 °F - 75.2 °F 100% 30.01 in 10.0 mi SW 3.5 mph - N/A   Mostly Cloudy
9:58 AM 76.6 °F - 74.8 °F 94% 30.01 in 10.0 mi SW 1.2 mph - 0.00 in   Scattered Clouds
10:48 AM 78.8 °F - 75.2 °F 89% 30.00 in 10.0 mi Variable 2.3 mph - N/A   Mostly Cloudy
10:58 AM 79.3 °F - 73.9 °F 83% 30.01 in 10.0 mi South 2.3 mph - N/A   Overcast
11:23 AM 80.6 °F 85.4 °F 73.4 °F 79% 30.00 in 10.0 mi Variable 3.5 mph - N/A   Mostly Cloudy
11:43 AM 80.6 °F 85.4 °F 73.4 °F 79% 30.00 in 10.0 mi Variable 3.5 mph - N/A   Mostly Cloudy
11:48 AM 80.6 °F 85.4 °F 73.4 °F 79% 30.00 in 10.0 mi South 4.6 mph - N/A   Overcast
11:58 AM 80.4 °F 85.1 °F 73.8 °F 80% 30.02 in 10.0 mi South 3.5 mph - N/A   Mostly Cloudy
12:03 PM 80.6 °F 85.4 °F 73.4 °F 79% 30.01 in 10.0 mi East 3.5 mph - N/A   Mostly Cloudy
12:13 PM 80.6 °F 85.4 °F 73.4 °F 79% 30.01 in 10.0 mi Variable 1.2 mph - N/A   Mostly Cloudy
12:28 PM 80.6 °F 85.4 °F 73.4 °F 79% 30.00 in 10.0 mi Variable 3.5 mph - N/A   Mostly Cloudy
12:33 PM 82.4 °F 88.2 °F 73.4 °F 74% 30.00 in 10.0 mi Variable 3.5 mph - N/A   Mostly Cloudy
12:55 PM 82.4 °F 88.2 °F 73.4 °F 74% 30.00 in 10.0 mi Variable 2.3 mph - N/A Thunderstorm Thunderstorm
12:58 PM 81.7 °F 87.3 °F 73.8 °F 77% 30.01 in 10.0 mi NNE 12.7 mph - N/A Thunderstorm Thunderstorm
1:14 PM 77.0 °F - 71.6 °F 83% 30.00 in 10.0 mi NNE 11.5 mph - N/A Rain , Thunderstorm Light Thunderstorms and Rain
1:25 PM 75.2 °F - 71.6 °F 89% 30.00 in 10.0 mi ENE 12.7 mph 19.6 mph N/A Thunderstorm Thunderstorm
1:29 PM 73.4 °F - 71.6 °F 94% 30.00 in 10.0 mi ENE 16.1 mph - N/A Rain , Thunderstorm Light Thunderstorms and Rain
1:33 PM 73.4 °F - 71.6 °F 94% 30.00 in 10.0 mi ENE 16.1 mph - N/A Rain , Thunderstorm Light Rain
1:38 PM 73.4 °F - 71.6 °F 94% 30.00 in 8.0 mi ENE 16.1 mph 23.0 mph N/A Rain Light Rain
1:46 PM 73.4 °F - 73.4 °F 100% 30.00 in 5.0 mi ENE 10.4 mph - N/A Rain , Thunderstorm Thunderstorms and Rain
1:58 PM 73.2 °F - 72.9 °F 99% 30.00 in 3.0 mi East 8.1 mph 18.4 mph 0.07 in Rain , Thunderstorm Thunderstorms and Rain
2:04 PM 73.4 °F - 73.4 °F 100% 29.99 in 9.0 mi East 11.5 mph - N/A Thunderstorm Light Drizzle
2:27 PM 73.4 °F - 73.4 °F 100% 29.98 in 10.0 mi ESE 8.1 mph - N/A   Overcast
2:58 PM 74.5 °F - 74.5 °F 100% 29.98 in 10.0 mi SE 8.1 mph - 0.00 in   Mostly Cloudy
3:15 PM 75.2 °F - 75.2 °F 100% 29.97 in 10.0 mi SSE 5.8 mph - N/A   Light Drizzle
3:58 PM 73.9 °F - 73.2 °F 98% 29.96 in 10.0 mi SE 2.3 mph - 0.01 in Rain Light Rain
4:58 PM 75.2 °F - 75.2 °F 100% 29.95 in 10.0 mi ESE 3.5 mph - 0.05 in Rain Light Rain
5:25 PM 75.2 °F - 75.2 °F 100% 29.94 in 10.0 mi SE 4.6 mph - N/A   Partly Cloudy
5:32 PM 75.2 °F - 75.2 °F 100% 29.94 in 10.0 mi SE 3.5 mph - N/A Rain Light Rain
5:46 PM 77.0 °F - 77.0 °F 100% 29.93 in 10.0 mi SE 3.5 mph - N/A   Scattered Clouds
5:54 PM 77.0 °F - 77.0 °F 100% 29.93 in 10.0 mi SE 3.5 mph - N/A   Light Drizzle
5:58 PM 76.3 °F - 76.3 °F 100% 29.94 in 10.0 mi SSE 4.6 mph - 0.00 in   Light Drizzle
6:17 PM 77.0 °F - 77.0 °F 100% 29.93 in 10.0 mi SE 1.2 mph - N/A   Scattered Clouds
6:47 PM 77.0 °F - 77.0 °F 100% 29.92 in 10.0 mi SSW 5.8 mph - N/A   Mostly Cloudy
6:58 PM 77.0 °F - 77.0 °F 100% 29.93 in 10.0 mi SSE 3.5 mph - 0.00 in   Mostly Cloudy
7:03 PM 77.0 °F - 77.0 °F 100% 29.92 in 10.0 mi South 4.6 mph - N/A   Scattered Clouds
7:43 PM 77.0 °F - 77.0 °F 100% 29.93 in 10.0 mi SSE 3.5 mph - N/A   Mostly Cloudy
7:48 PM 77.0 °F - 77.0 °F 100% 29.93 in 10.0 mi SE 4.6 mph - N/A   Mostly Cloudy
7:58 PM 77.4 °F - 76.5 °F 97% 29.94 in 10.0 mi SE 5.8 mph - N/A   Mostly Cloudy
8:03 PM 77.0 °F - 77.0 °F 100% 29.93 in 10.0 mi SE 5.8 mph - N/A   Mostly Cloudy
8:08 PM 77.0 °F - 75.2 °F 94% 29.93 in 10.0 mi SSE 6.9 mph - N/A   Mostly Cloudy
8:13 PM 77.0 °F - 75.2 °F 94% 29.93 in 10.0 mi Variable 5.8 mph - N/A   Mostly Cloudy
8:33 PM 77.0 °F - 75.2 °F 94% 29.94 in 10.0 mi Variable 4.6 mph - N/A   Mostly Cloudy
8:58 PM 75.2 °F - 74.5 °F 98% 29.95 in 10.0 mi South 6.9 mph - N/A   Overcast
9:08 PM 75.2 °F - 73.4 °F 94% 29.94 in 10.0 mi South 4.6 mph - N/A   Overcast
9:18 PM 75.2 °F - 73.4 °F 94% 29.95 in 10.0 mi South 4.6 mph - N/A   Light Drizzle
9:35 PM 75.2 °F - 73.4 °F 94% 29.94 in 10.0 mi Variable 6.9 mph - N/A   Mostly Cloudy
9:50 PM 73.4 °F - 73.4 °F 100% 29.94 in 10.0 mi SSW 5.8 mph - N/A   Scattered Clouds
9:58 PM 73.9 °F - 73.2 °F 98% 29.96 in 10.0 mi SSW 4.6 mph - 0.00 in   Scattered Clouds
10:58 PM 73.2 °F - 72.7 °F 98% 29.97 in 10.0 mi SSW 2.3 mph - N/A   Overcast
11:58 PM 72.7 °F - 72.7 °F 100% 29.97 in 10.0 mi South 2.3 mph - N/A   Overcast